CW0730 Weather Reports


time (UTC)temp
F
wind
direction
speed
knots
gust
knots
rain 1hr
in
rain 24hr
in
rain mn
in
humidity
%
barometer
mb
20260507134555 52 291 2.6 5.2 0.00 0.86 0.28 75 1002.5
20260507133048 51 293 2.6 7.8 0.00 0.86 0.28 77 1002.8
20260507131603 51 333 3.5 8.7 0.00 0.86 0.28 80 1002.8
20260507130041 50 317 4.3 8.7 0.00 0.86 0.28 84 1002.6
20260507124535 49 293 3.5 7.0 0.00 0.86 0.28 86 1002.8
20260507123032 49 290 4.3 7.8 0.00 0.86 0.28 87 1002.5
20260507121529 48 312 3.5 7.0 0.00 0.86 0.28 90 1002.6
20260507120025 48 285 2.6 5.2 0.00 0.86 0.28 92 1002.8
20260507114523 47 264 2.6 5.2 0.00 0.86 0.28 96 1003.3
20260507113020 46 277 1.7 5.2 0.00 0.86 0.28 96 1003.2
20260507111518 46 287 0.9 5.2 0.00 0.86 0.28 96 1003.3
20260507110016 46 313 2.6 6.1 0.00 0.86 0.28 97 1003.2
20260507104515 46 276 2.6 5.2 0.00 0.86 0.28 98 1003.1
20260507103025 46 297 1.7 5.2 0.00 0.86 0.28 99 1002.5
20260507101512 46 293 1.7 5.2 0.00 0.86 0.28 99 1002.6
20260507100010 46 306 1.7 3.5 0.00 0.86 0.28 99 1002.1
20260507094511 46 282 2.6 5.2 0.00 0.86 0.28 99 1002.3
20260507093008 46 305 2.6 5.2 0.00 0.86 0.28 100 1002.1
20260507091506 46 294 0.0 5.2 0.00 0.86 0.28 100 1002.6
20260507090006 46 259 1.7 4.3 0.00 0.86 0.28 99 1002.8
20260507084505 46 321 3.5 7.8 0.00 0.86 0.28 99 1002.2
20260507083004 46 319 4.3 11.3 0.00 0.86 0.28 99 1002.0
20260507081503 46 305 6.1 13.9 0.00 0.86 0.28 99 1001.7
20260507080002 47 304 4.3 9.6 0.00 0.86 0.28 100 1002.0
20260507074500 47 303 5.2 10.4 0.01 0.86 0.28 100 1001.9
20260507073100 47 259 2.6 7.8 0.02 0.86 0.28 100 1001.8
20260507071611 47 312 2.6 7.8 0.02 0.86 0.28 100 1001.6
20260507070100 47 352 3.5 8.7 0.02 0.86 0.28 100 1001.6
20260507064600 48 342 0.9 7.0 0.07 0.85 0.27 100 1001.2
20260507063101 48 309 0.9 4.3 0.21 0.84 0.26 100 1001.6
20260507061600 48 340 2.6 7.0 0.25 0.84 0.26 100 1001.2
20260507060059 48 302 3.5 13.0 0.25 0.84 0.26 100 1001.1
20260507054602 49 327 5.2 18.2 0.19 0.78 0.20 100 1001.3
20260507053124 47 209 9.6 14.8 0.03 0.62 0.04 100 1001.9
20260507051601 48 179 2.6 7.0 0.00 0.59 0.01 100 1000.7
20260507050051 47 199 5.2 8.7 0.01 0.59 0.01 100 1000.8
20260507044555 46 191 7.8 15.6 0.01 0.59 0.01 100 1000.7
20260507043047 47 190 11.3 20.0 0.01 0.59 0.01 100 1000.9
20260507041546 48 184 11.3 23.5 0.01 0.59 0.01 100 1000.5
20260507040043 48 195 14.8 25.2 0.00 0.57 0.00 100 1000.7
20260507034540 48 185 15.6 26.9 0.00 0.57 0.57 100 1000.9
20260507033044 47 158 16.5 24.3 0.00 0.57 0.57 100 1000.7
20260507031538 47 179 14.8 27.8 0.00 0.57 0.57 100 1001.0
20260507030037 47 196 15.6 26.9 0.01 0.57 0.57 100 1001.2
20260507024537 47 184 13.0 23.5 0.02 0.57 0.57 100 1001.7
20260507023035 47 166 13.9 21.7 0.04 0.57 0.57 100 1002.0
20260507021528 48 190 14.8 21.7 0.07 0.57 0.57 100 1002.3
20260507020027 48 176 14.8 20.9 0.13 0.56 0.56 100 1002.4
20260507014525 49 186 14.8 20.9 0.14 0.56 0.56 100 1002.6
20260507013023 48 189 12.2 18.2 0.16 0.54 0.54 100 1002.9
20260507011532 48 203 10.4 14.8 0.15 0.51 0.51 100 1003.1
20260507010025 48 186 9.6 15.6 0.12 0.44 0.44 100 1003.2
20260507004524 49 202 11.3 21.7 0.15 0.42 0.42 100 1003.5
20260507003019 49 205 14.8 20.0 0.14 0.38 0.38 99 1003.6
20260507001518 52 166 9.6 18.2 0.14 0.35 0.35 100 1003.5
20260507000018 53 174 16.5 26.9 0.15 0.31 0.31 100 1003.4
20260506234517 52 184 12.2 22.6 0.14 0.27 0.27 100 1003.7
20260506233015 50 167 14.8 23.5 0.14 0.24 0.24 100 1003.8
20260506231514 49 152 10.4 22.6 0.12 0.21 0.21 100 1003.9
20260506230014 49 158 14.8 21.7 0.09 0.16 0.16 100 1004.3
20260506224512 49 188 14.8 24.3 0.07 0.13 0.13 99 1004.3
20260506223008 49 164 8.7 20.0 0.06 0.10 0.10 99 1004.5
20260506221510 49 184 13.0 17.4 0.07 0.09 0.09 98 1004.6
20260506220018 50 168 14.8 21.7 0.05 0.07 0.07 99 1004.5
20260506214507 49 147 13.9 22.6 0.06 0.06 0.06 99 1004.9
20260506213004 49 195 16.5 22.6 0.04 0.04 0.04 98 1005.2
20260506211502 49 160 11.3 18.2 0.02 0.02 0.02 98 1005.2
20260506210005 50 169 15.6 23.5 0.02 0.02 0.02 97 1005.3
20260506204502 51 168 17.4 28.7 0.00 0.00 0.00 97 1005.2
20260506203001 51 177 15.6 26.1 0.00 0.00 0.00 96 1005.4
20260506201502 50 184 14.8 26.1 0.00 0.00 0.00 95 1005.5
20260506200000 51 165 13.9 24.3 0.00 0.00 0.00 95 1004.9
20260506194608 51 175 10.4 18.2 0.00 0.00 0.00 95 1005.3
20260506193101 50 181 11.3 22.6 0.00 0.00 0.00 95 1005.2
20260506191608 50 151 10.4 19.1 0.00 0.00 0.00 95 1005.3
20260506190058 50 182 12.2 20.0 0.00 0.00 0.00 95 1005.7
20260506190005 51 160 13.0 21.7 0.00 0.00 0.00 95 1005.7
20260506184558 51 161 13.0 21.7 0.00 0.00 0.00 95 1005.7
20260506183111 51 158 15.6 23.5 0.00 0.00 0.00 95 1005.7
20260506181601 51 158 13.9 27.8 0.00 0.00 0.00 95 1005.8
20260506180114 51 155 14.8 22.6 0.00 0.00 0.00 95 1005.9
20260506174554 51 167 10.4 20.9 0.00 0.00 0.00 94 1006.0
20260506173124 52 171 13.0 22.6 0.00 0.00 0.00 94 1006.3
20260506171554 52 174 15.6 26.9 0.00 0.00 0.00 94 1006.4
20260506170054 52 170 14.8 23.5 0.00 0.00 0.00 93 1006.6
20260506164555 52 165 13.0 23.5 0.00 0.00 0.00 93 1006.7
20260506163100 52 153 15.6 25.2 0.00 0.00 0.00 93 1007.0
20260506161556 52 190 20.0 28.7 0.00 0.00 0.00 94 1007.1
20260506160052 52 189 15.6 25.2 0.00 0.00 0.00 93 1007.1
20260506154552 52 179 14.8 26.9 0.00 0.00 0.00 95 1007.2
20260506153050 52 181 16.5 24.3 0.00 0.00 0.00 94 1006.8
20260506151551 52 172 17.4 26.1 0.00 0.00 0.00 94 1006.7
20260506150056 52 200 11.3 25.2 0.00 0.00 0.00 94 1007.0
20260506144651 52 178 11.3 21.7 0.00 0.00 0.00 96 1007.5
20260506143046 51 198 12.2 24.3 0.00 0.00 0.00 97 1007.7
20260506141545 50 202 13.0 23.5 0.00 0.00 0.00 97 1007.9
20260506140045 51 189 13.0 20.9 0.00 0.00 0.00 96 1007.6